This is the latest recevied weather packets stored in our database for station/object W2IRT. If no packets are shown the sender has not sent any weather packets the latest 10 day(s).
| Time | Temp. | Humidity | Pressure | Rain* | Wind** | Luminosity | Snow |
|---|---|---|---|---|---|---|---|
| 1777574115 | 15° C | 72% | 1006.4 hPa | 0 mm | - | - | - |
| 1777573815 | 15° C | 76% | 1006.4 hPa | 0 mm | - | - | - |
| 1777573515 | 15° C | 75% | 1006.5 hPa | 0 mm | - | - | - |
| 1777573217 | 15° C | 77% | 1006.4 hPa | 0 mm | - | - | - |
| 1777572917 | 15° C | 75% | 1006.3 hPa | 0 mm | - | - | - |
| 1777572617 | 15° C | 75% | 1006.5 hPa | 0 mm | - | - | - |
| 1777572327 | 15° C | 75% | 1006.5 hPa | 0 mm | - | - | - |
| 1777572017 | 15° C | 75% | 1006.4 hPa | 0 mm | - | - | - |
| 1777571717 | 15° C | 77% | 1006.4 hPa | 0 mm | - | - | - |
| 1777571417 | 15° C | 75% | 1006.5 hPa | 0 mm | - | - | - |
| 1777571117 | 14.44° C | 78% | 1006.5 hPa | 0 mm | - | - | - |
| 1777570817 | 14.44° C | 78% | 1006.4 hPa | 0 mm | - | - | - |
| 1777570522 | 14.44° C | 77% | 1006.4 hPa | 0 mm | - | - | - |
| 1777570217 | 14.44° C | 79% | 1006.4 hPa | 0 mm | - | - | - |
| 1777569917 | 14.44° C | 80% | 1006.2 hPa | 0 mm | - | - | - |
| 1777569617 | 13.89° C | 78% | 1006.4 hPa | 0 mm | - | - | - |
| 1777569317 | 13.89° C | 78% | 1006.3 hPa | 0 mm | - | - | - |
| 1777569017 | 13.89° C | 80% | 1006.4 hPa | 0 mm | - | - | - |
| 1777568717 | 13.89° C | 80% | 1006.2 hPa | 0 mm | - | - | - |
| 1777568417 | 13.89° C | 79% | 1006.3 hPa | 0 mm | - | - | - |
| 1777568117 | 13.89° C | 81% | 1006.3 hPa | 0 mm | - | - | - |
| 1777567817 | 13.89° C | 83% | 1006.3 hPa | 0 mm | - | - | - |
| 1777567517 | 13.33° C | 81% | 1006.3 hPa | 0 mm | - | - | - |
| 1777567217 | 13.33° C | 84% | 1006.3 hPa | 0 mm | - | - | - |
| 1777566917 | 13.33° C | 87% | 1006.5 hPa | 0 mm | - | - | - |
* Rain latest hour (hover to see other rain measurements)
** Current wind speed in m/s (hover to see current wind gust speed)